Time,TemperatureF,DewpointF,PressureIn,WindDirection,WindDirectionDegrees,WindSpeedMPH,WindSpeedGustMPH,Humidity,HourlyPrecipIn,Conditions,Clouds,dailyrainin,SoftwareType,DateUTC
2013-10-07 00:21:00,49.0,25.0,30.02,ENE,68,1.0,1.0,38,0.00,,,0.00,,2013-10-07 06:21:00,
2013-10-07 00:42:00,48.0,24.0,30.02,ESE,113,1.0,1.0,39,0.00,,,0.00,,2013-10-07 06:42:00,
2013-10-07 00:53:00,48.0,25.0,30.02,East,90,1.0,1.0,40,0.00,,,0.00,,2013-10-07 06:53:00,
2013-10-07 01:22:00,47.0,24.0,30.01,SSE,158,1.0,3.0,40,0.00,,,0.00,,2013-10-07 07:22:00,
2013-10-07 01:42:00,46.0,24.0,30.02,NNE,23,0.0,1.0,41,0.00,,,0.00,,2013-10-07 07:42:00,
2013-10-07 01:52:00,46.0,24.0,30.02,SE,127,1.0,3.0,42,0.00,,,0.00,,2013-10-07 07:52:00,
2013-10-07 02:21:00,46.0,25.0,30.03,East,101,2.0,2.0,44,0.00,,,0.00,,2013-10-07 08:21:00,
2013-10-07 02:52:00,45.0,24.0,30.03,East,90,0.0,1.0,44,0.00,,,0.00,,2013-10-07 08:52:00,
2013-10-07 03:21:00,45.0,25.0,30.02,ESE,113,1.0,2.0,45,0.00,,,0.00,,2013-10-07 09:21:00,
2013-10-07 03:54:00,44.0,25.0,30.02,ESE,104,1.0,2.0,47,0.00,,,0.00,,2013-10-07 09:54:00,
2013-10-07 04:23:00,43.0,25.0,30.02,ESE,113,0.0,0.0,48,0.00,,,0.00,,2013-10-07 10:23:00,
2013-10-07 04:42:00,43.0,25.0,30.02,ESE,113,0.0,1.0,49,0.00,,,0.00,,2013-10-07 10:42:00,
2013-10-07 04:53:00,42.0,24.0,30.02,ESE,113,0.0,1.0,49,0.00,,,0.00,,2013-10-07 10:53:00,
2013-10-07 05:22:00,42.0,24.0,30.02,NE,45,0.0,0.0,49,0.00,,,0.00,,2013-10-07 11:22:00,
2013-10-07 05:42:00,42.0,24.0,30.02,North,0,0.0,1.0,49,0.00,,,0.00,,2013-10-07 11:42:00,
2013-10-07 05:52:00,42.0,24.0,30.02,ENE,77,1.0,2.0,49,0.00,,,0.00,,2013-10-07 11:52:00,
2013-10-07 06:22:00,41.0,23.0,30.03,SE,135,0.0,0.0,49,0.00,,,0.00,,2013-10-07 12:22:00,
2013-10-07 06:42:00,41.0,24.0,30.03,ESE,113,0.0,1.0,50,0.00,,,0.00,,2013-10-07 12:42:00,
2013-10-07 06:52:00,41.0,24.0,30.03,ESE,113,1.0,1.0,51,0.00,,,0.00,,2013-10-07 12:52:00,
2013-10-07 07:11:00,40.0,24.0,30.04,East,90,1.0,2.0,52,0.00,,,0.00,,2013-10-07 13:11:00,
2013-10-07 07:22:00,40.0,24.0,30.04,ESE,113,1.0,2.0,53,0.00,,,0.00,,2013-10-07 13:22:00,
2013-10-07 07:42:00,40.0,25.0,30.04,East,90,0.0,0.0,54,0.00,,,0.00,,2013-10-07 13:42:00,
2013-10-07 07:52:00,39.0,25.0,30.05,ENE,68,1.0,1.0,56,0.00,,,0.00,,2013-10-07 13:52:00,
2013-10-07 08:11:00,40.0,26.0,30.05,North,0,1.0,1.0,57,0.00,,,0.00,,2013-10-07 14:11:00,
2013-10-07 08:22:00,41.0,27.0,30.05,North,0,1.0,1.0,56,0.00,,,0.00,,2013-10-07 14:22:00,
2013-10-07 08:42:00,44.0,26.0,30.06,NNW,338,2.0,3.0,48,0.00,,,0.00,,2013-10-07 14:42:00,
2013-10-07 08:52:00,46.0,24.0,30.06,NNW,346,3.0,4.0,41,0.00,,,0.00,,2013-10-07 14:52:00,
2013-10-07 09:22:00,48.0,24.0,30.06,North,349,1.0,3.0,39,0.00,,,0.00,,2013-10-07 15:22:00,
2013-10-07 09:43:00,49.0,25.0,30.07,WSW,258,1.0,3.0,38,0.00,,,0.00,,2013-10-07 15:43:00,
2013-10-07 09:53:00,51.0,26.0,30.07,WNW,302,3.0,4.0,37,0.00,,,0.00,,2013-10-07 15:53:00,
2013-10-07 10:23:00,54.0,26.0,30.07,WNW,286,2.0,4.0,34,0.00,,,0.00,,2013-10-07 16:23:00,
2013-10-07 10:53:00,58.0,28.0,30.06,NW,304,1.0,4.0,32,0.00,,,0.00,,2013-10-07 16:53:00,
2013-10-07 11:22:00,62.0,29.0,30.06,South,186,1.0,3.0,29,0.00,,,0.00,,2013-10-07 17:22:00,
2013-10-07 11:52:00,64.0,30.0,30.05,SW,223,2.0,5.0,28,0.00,,,0.00,,2013-10-07 17:52:00,
2013-10-07 12:22:00,68.0,29.0,30.04,SSW,210,2.0,4.0,23,0.00,,,0.00,,2013-10-07 18:22:00,
2013-10-07 12:52:00,71.0,29.0,30.02,SW,214,3.0,6.0,21,0.00,,,0.00,,2013-10-07 18:52:00,
2013-10-07 13:22:00,73.0,31.0,30.00,SSE,162,1.0,4.0,21,0.00,,,0.00,,2013-10-07 19:22:00,
2013-10-07 13:52:00,74.0,26.0,29.97,SE,141,4.0,8.0,17,0.00,,,0.00,,2013-10-07 19:52:00,
2013-10-07 14:22:00,76.0,27.0,29.97,SSE,149,4.0,7.0,16,0.00,,,0.00,,2013-10-07 20:22:00,
2013-10-07 14:52:00,76.0,27.0,29.97,WSW,246,2.0,6.0,16,0.00,,,0.00,,2013-10-07 20:52:00,
2013-10-07 15:23:00,76.0,25.0,29.95,SSE,154,3.0,6.0,15,0.00,,,0.00,,2013-10-07 21:23:00,
2013-10-07 15:55:00,76.0,25.0,29.94,SE,141,4.0,8.0,15,0.00,,,0.00,,2013-10-07 21:55:00,
2013-10-07 16:24:00,76.0,23.0,29.92,SE,143,3.0,8.0,14,0.00,,,0.00,,2013-10-07 22:24:00,
2013-10-07 16:53:00,76.0,25.0,29.91,SE,143,3.0,8.0,15,0.00,,,0.00,,2013-10-07 22:53:00,
2013-10-07 17:22:00,75.0,26.0,29.91,SSW,204,3.0,7.0,16,0.00,,,0.00,,2013-10-07 23:22:00,
2013-10-07 17:52:00,74.0,25.0,29.90,South,181,2.0,5.0,16,0.00,,,0.00,,2013-10-07 23:52:00,
2013-10-07 18:22:00,73.0,26.0,29.90,SSE,156,3.0,5.0,17,0.00,,,0.00,,2013-10-08 00:22:00,
2013-10-07 18:52:00,71.0,27.0,29.90,SW,225,1.0,3.0,19,0.00,,,0.00,,2013-10-08 00:52:00,
2013-10-07 19:12:00,70.0,28.0,29.90,SW,225,0.0,1.0,21,0.00,,,0.00,,2013-10-08 01:12:00,
2013-10-07 19:21:00,68.0,28.0,29.91,SSW,203,0.0,1.0,22,0.00,,,0.00,,2013-10-08 01:21:00,
2013-10-07 19:52:00,65.0,28.0,29.91,East,90,1.0,2.0,25,0.00,,,0.00,,2013-10-08 01:52:00,
2013-10-07 20:21:00,63.0,27.0,29.92,ESE,113,3.0,3.0,25,0.00,,,0.00,,2013-10-08 02:21:00,
2013-10-07 20:52:00,62.0,26.0,29.92,East,90,2.0,3.0,25,0.00,,,0.00,,2013-10-08 02:52:00,
2013-10-07 21:22:00,61.0,26.0,29.92,East,101,2.0,3.0,26,0.00,,,0.00,,2013-10-08 03:22:00,
2013-10-07 21:55:00,60.0,26.0,29.92,East,95,3.0,5.0,27,0.00,,,0.00,,2013-10-08 03:55:00,
2013-10-07 22:14:00,60.0,26.0,29.93,ESE,102,4.0,5.0,27,0.00,,,0.00,,2013-10-08 04:14:00,
2013-10-07 22:23:00,60.0,26.0,29.93,East,93,3.0,3.0,27,0.00,,,0.00,,2013-10-08 04:23:00,
2013-10-07 22:53:00,59.0,26.0,29.92,ESE,108,3.0,4.0,28,0.00,,,0.00,,2013-10-08 04:53:00,
2013-10-07 23:22:00,58.0,26.0,29.92,ESE,107,3.0,4.0,29,0.00,,,0.00,,2013-10-08 05:22:00,
2013-10-07 23:53:00,58.0,26.0,29.91,ESE,113,3.0,3.0,29,0.00,,,0.00,,2013-10-08 05:53:00,